Location: Desert Center
(33.7130°N, 115.4010°W)
Time: 13:33:25
(UTC-07:00)

Daily predictions for brighter satellites

Satellite Brightness Start Highest point End
(mag) Time Altitude Azimuth Time Altitude Azimuth Time Altitude Azimuth
Meteor 2-21 4.5 19:25:55 10° S 19:32:06 79° E 19:38:16 10° N
Cosmos 1346 Rocket 3.9 19:30:51 10° NNE 19:34:13 26° ENE 19:37:36 10° SE
DELTA 2 R/B (1) 4.3 19:30:36 10° WNW 19:35:59 47° N 19:41:20 10° E
Meteor 1-5 Rocket 4.2 19:33:07 10° S 19:38:18 57° E 19:43:38 10° NNE
Cosmos 1536 3.5 19:35:12 10° SSW 19:39:09 62° W 19:43:08 10° N
Cosmos 1025 Rocket 3.0 19:35:50 10° N 19:40:12 87° E 19:44:30 10° S
Cosmos 2297 Rocket 3.4 19:36:48 10° N 19:41:19 24° ENE 19:45:49 10° ESE
Cosmos 1455 Rocket 3.1 19:43:14 10° S 19:47:28 57° E 19:51:44 10° NNE
Cosmos 1892 Rocket 3.6 19:43:12 10° N 19:47:39 63° E 19:52:04 10° SSE
HJ-1C 3.4 19:44:49 10° S 19:48:05 80° WSW 19:51:22 10° NNW
Meteor 2-14 Rocket 4.4 19:42:02 10° S 19:48:10 76° E 19:54:18 10° N
Meteor 1-29 3.6 19:45:27 10° N 19:48:52 61° WNW 19:52:17 10° SSW
Resurs 1-3 3.6 19:52:44 10° SSE 19:57:06 88° E 20:01:31 10° NNW
Cosmos 2123 Rocket 4.0 19:57:27 10° N 20:03:35 62° E 20:09:40 10° SSE
SL-24 R/B - RUBIN 2 4.2 20:04:40 10° SSW 20:10:17 76° ESE 20:16:38 10° NNE
OAO 2 Rocket 3.3 20:08:17 10° W 20:13:17 82° N 20:17:25 16° E
Cosmos 1697 Rocket 2.9 20:08:36 10° S 20:13:57 46° ESE 20:19:19 10° NE
Myojo/LAPS 3.7 20:15:50 10° WSW 20:18:06 28° S 20:18:41 25° SSE
Resurs 01 Rocket 3.2 20:15:13 10° SSW 20:19:18 37° W 20:23:25 10° NNW
Delta 2 Rocket 4.1 20:15:27 10° WNW 20:21:10 73° SSW 20:24:27 24° ESE
H-2A R/B 2.7 20:21:25 10° SSE 20:25:17 88° ENE 20:29:13 10° N
ALOS 2.4 20:20:39 10° S 20:25:19 79° WSW 20:30:00 10° NNW
CZ-4B DEB 3.9 20:22:37 10° S 20:25:46 44° W 20:28:55 10° NNW
Cosmos 1975 2.7 20:21:52 10° S 20:25:57 80° E 20:30:04 10° N
USA 186 1.5 20:24:36 20° SSE 20:26:37 81° ENE 20:29:35 10° N
Cosmos 1153 Rocket 4.4 20:23:00 10° S 20:29:10 72° E 20:35:17 10° N
NOSS 3-4 (A) 4.0 20:23:44 10° NW 20:30:52 76° WSW 20:37:48 13° SSE
NOSS 3-4 (C) 4.0 20:23:52 10° NW 20:31:00 77° WSW 20:37:52 13° SSE
Lacrosse 5 rocket 1.1 20:33:01 10° NNW 20:36:40 59° NE 20:37:27 46° E
OTV 4 0.2 20:33:51 10° WNW 20:36:49 87° SSW 20:37:04 72° ESE
Cosmos 1980 Rocket 2.5 20:31:45 10° S 20:37:03 43° ESE 20:42:23 10° NE
Envisat 3.6 20:40:38 32° E 20:41:49 36° ENE 20:46:25 10° N
Cosmos 2298 Rocket 4.2 20:37:30 10° N 20:42:43 54° ENE 20:44:41 35° SE
Cosmos 1447 Rocket 4.4 20:36:46 10° N 20:43:05 74° E 20:48:17 16° SSE
Cosmos 1802 Rocket 4.3 20:40:41 21° SSE 20:44:37 45° E 20:50:41 10° NNE
CZ-2D R/B 4.4 20:42:20 10° S 20:46:00 42° W 20:49:43 10° NNW
Iridium 4 Rocket 3.2 20:43:32 10° N 20:48:29 89° E 20:51:25 22° S
Cosmos 1937 Rocket 4.1 20:43:42 10° N 20:48:37 38° ENE 20:49:28 36° E
Tiangong 1 3.3 20:48:44 10° NW 20:50:54 17° N 20:51:19 17° NNE
Hubble Space Telescope 3.0 20:52:37 10° SW 20:54:54 14° SSW 20:55:13 14° SSW
Cosmos 2016 Rocket 4.2 20:55:44 38° SE 20:57:21 47° E 21:03:13 10° NNE
Cosmos 1500 3.6 20:55:52 16° SSW 20:58:41 59° W 21:02:25 10° N
Cosmos 1939 Rocket 2.9 21:01:50 63° ENE 21:01:50 63° ENE 21:05:51 10° N
Cosmos 1825 Rocket 4.1 21:03:19 10° N 21:06:47 44° NE 21:06:47 44° NE
Cosmos 2150 Rocket 3.8 21:03:35 10° NNW 21:08:45 83° ENE 21:09:44 59° SSE
ERS-1 Rocket 2.9 21:08:10 48° S 21:09:35 87° WSW 21:14:38 10° NNW
Cosmos 2173 Rocket 3.9 21:03:42 12° S 21:09:40 86° E 21:16:02 10° N
Cosmos 2322 Rocket 4.3 21:14:22 12° NE 21:14:22 12° NE 21:14:44 10° NE
Cosmos 2227 Rocket 3.4 21:05:00 10° NW 21:10:10 38° WSW 21:14:16 15° SSW
Cosmos 2098 Rocket 4.3 21:10:27 46° ESE 21:11:09 48° E 21:17:01 10° NNE
BREEZE-M TANK 3.5 21:03:14 10° WNW 21:11:21 41° NNE 21:12:07 37° NE
Cosmos 1340 4.4 21:09:56 10° N 21:11:43 24° NNE 21:11:43 24° NNE
Lacrosse 5 2.3 21:10:22 10° NNW 21:15:15 46° NE 21:15:16 46° NE
H-2A R/B 2.9 21:17:55 38° NNE 21:17:55 38° NNE 21:20:41 10° N
Meteor 1-21 4.3 21:12:26 10° N 21:18:09 59° E 21:18:18 58° E
SPOT 5 3.4 21:19:02 48° NE 21:19:02 48° NE 21:23:06 10° N
Cosmos 2360 4.0 21:20:15 53° S 21:21:36 76° ESE 21:27:20 10° NNE
Cosmos 1763 Rocket 3.3 21:21:33 60° SSW 21:22:31 88° WNW 21:27:37 10° NNE
DELTA 2 R/B (1) 3.4 21:17:13 10° WNW 21:22:48 85° NNE 21:23:11 78° E
Cosmos 2100 Rocket 4.3 21:17:18 10° SSW 21:23:33 66° W 21:29:45 10° N
Cosmos 2297 Rocket 3.3 21:20:12 10° NW 21:25:26 40° WSW 21:28:02 25° SSW
Cosmos 1898 Rocket 3.9 21:22:18 10° NNW 21:27:30 60° WSW 21:28:26 51° SSW
Cosmos 2061 Rocket 4.3 21:25:05 12° SSW 21:30:58 64° W 21:37:12 10° N
RESURS DK-1 3.5 21:29:33 10° NNW 21:32:21 42° NNW 21:32:21 42° NNW
MetOp-A 4.3 21:36:02 61° NNE 21:36:02 61° NNE 21:40:37 10° N
Cosmos 1743 4.2 21:36:51 36° WNW 21:36:51 36° WNW 21:40:04 10° NNW
Tsikada Rocket 4.4 21:30:54 10° N 21:36:14 47° NE 21:36:14 47° NE
deb Chang Zheng 4 4.3 21:34:04 10° N 21:38:04 53° NW 21:38:04 53° NW
Cosmos 841 Rocket 3.9 21:44:51 60° W 21:45:08 61° WNW 21:50:19 10° N
Terra 4.4 21:50:19 11° NNE 21:50:19 11° NNE 21:50:36 10° NNE
Cosmos 1725 Rocket 4.0 21:57:34 74° NNW 21:57:34 74° NNW 22:03:15 10° N
OAO 2 Rocket 4.5 21:53:09 10° W 21:56:23 40° WNW 21:56:23 40° WNW
SL-16 R/B 3.9 22:09:54 23° NNE 22:09:54 23° NNE 22:11:56 10° NNE
ARGOS 4.4 22:16:34 38° NNW 22:16:34 38° NNW 22:19:48 10° NNW
CZ-3C R/B 4.2 22:06:58 10° W 22:20:27 23° SW 22:20:53 23° SW
Cosmos 1980 Rocket 4.3 22:16:47 10° WSW 22:21:11 23° WNW 22:25:37 10° N
H-2A R/B 4.2 22:39:08 19° N 22:39:08 19° N 22:40:31 10° N
Cosmos 2263 Rocket 4.2 22:46:54 10° NNW 22:48:52 22° N 22:48:52 22° N
Milstar 3 Cent rocket 4.3 22:37:24 10° W 22:51:21 47° SW 22:51:21 47° SW
Cosmos 2322 Rocket 4.2 22:56:06 23° NNW 22:56:06 23° NNW 22:58:49 10° N
